Flag for San Marino Weather past 2 weeks in San Marino, San Marino

Now
84 °F

Scattered clouds.


Feels Like: 90 °F
Forecast: 62 / 84 °F
Wind: 7 mph from South

Location: Rimini Airport

Current Time: Aug 20, 2014 at 7:25:27 PM

Latest Report: Aug 20, 2014 at 6:45 PM


Visibility: N/A

Pressure: 29.86 "Hg

Humidity: 66%

Dew point: 72 °F

Location of San MarinoLocation

Historic Weather in San Marino — Graph

°F

San Marino temperature yesterday

Maximum temperature yesterday: 84 °F (at 2:45 PM)
Minimum temperature yesterday: 66 °F (at 4:15 AM)
Average temperature yesterday: 76 °F

Past Weeks' High & Low Weather Summary

 TemperatureHumidityPressure
High91 °F (Aug 13, 3:45 PM)100% (Aug 8, 2:15 AM)30.07 "Hg (Aug 8, 2:15 AM)
Low61 °F (Aug 16, 5:15 AM)43% (Aug 14, 1:15 PM)29.65 "Hg (Aug 13, 6:45 PM)
Average77 °F78%29.90 "Hg
* Reported Aug 5 5:15 PM — Aug 20 5:45 PM, San Marino, Weather by CustomWeather, © 2014

Note: Actual official high and low records may vary slightly from our data, if they occured in-between our weather recording intervals... More about our weather records

Advertising

San Marino weather history for previous 24 hours

 ConditionsComfort  
Time TempWeatherWind HumidityBarometerVisibility
5:45 PM
Aug 20
84 °FScattered clouds.7 mph66%29.86 "HgN/A
5:15 PM86 °FScattered clouds.8 mph59%29.86 "HgN/A
4:45 PM86 °FScattered clouds.6 mph59%29.86 "HgN/A
4:15 PM86 °FScattered clouds.5 mph59%29.86 "HgN/A
3:45 PM86 °FScattered clouds.8 mph59%29.89 "HgN/A
3:15 PM86 °FScattered clouds.10 mph59%29.89 "HgN/A
2:45 PM81 °FScattered clouds.12 mph79%29.89 "HgN/A
2:15 PM81 °FScattered clouds.12 mph84%29.89 "HgN/A
1:45 PM81 °FScattered clouds.12 mph84%29.92 "HgN/A
1:15 PM81 °FScattered clouds.12 mph79%29.92 "HgN/A
12:45 PM81 °FScattered clouds.12 mph79%29.92 "HgN/A
12:15 PM82 °FPassing clouds.10 mph79%29.92 "HgN/A
11:45 AM82 °FPassing clouds.8 mph74%29.92 "HgN/A
11:15 AM82 °FPassing clouds.7 mph74%29.92 "HgN/A
10:45 AM81 °FPassing clouds.7 mph74%29.92 "HgN/A
10:15 AM81 °FSunny.5 mph74%29.92 "Hg10 mi
9:45 AM79 °FSunny.N/A74%29.92 "Hg10 mi
9:15 AM77 °FSunny.N/A83%29.92 "Hg10 mi
8:45 AM75 °FSunny.N/A89%29.92 "Hg10 mi
8:15 AM70 °FSunny.N/A100%29.92 "Hg10 mi
7:45 AM68 °FSunny.N/A94%29.92 "Hg10 mi
7:15 AM66 °FClear.N/A100%29.92 "Hg10 mi
6:45 AM68 °FClear.N/A94%29.92 "Hg10 mi
6:15 AM68 °FClear.N/A94%29.92 "Hg10 mi
5:45 AM68 °FClear.N/A94%29.92 "Hg10 mi
5:15 AM68 °FClear.N/A94%29.92 "Hg10 mi
4:45 AM68 °FClear.N/A94%29.89 "Hg10 mi
2:45 AM72 °FClear.N/A94%29.89 "Hg10 mi
2:15 AM72 °FClear.N/A94%29.89 "Hg10 mi
1:15 AM72 °FClear.N/A100%29.89 "Hg10 mi
12:45 AM72 °FClear.N/A100%29.89 "Hg10 mi
12:15 AM72 °FClear.N/A100%29.89 "Hg10 mi
11:45 PM
Aug 19
72 °FClear.N/A100%29.89 "Hg10 mi
11:15 PM72 °FPassing clouds.N/A100%29.89 "HgN/A
10:45 PM73 °FPassing clouds.N/A100%29.89 "HgN/A
10:15 PM75 °FPassing clouds.N/A94%29.89 "HgN/A
9:45 PM75 °FPassing clouds.N/A94%29.86 "HgN/A
9:15 PM77 °FPassing clouds.N/A94%29.86 "HgN/A
8:45 PM79 °FScattered clouds.N/A89%29.86 "HgN/A
8:15 PM79 °FScattered clouds.N/A89%29.86 "HgN/A
7:45 PM81 °FScattered clouds.N/A79%29.86 "HgN/A
7:15 PM81 °FScattered clouds.N/A79%29.86 "HgN/A
Weather by CustomWeather, © 2014

See weather overviewHow to use our weather pages